AEROCUBE 14A (45114 NORAD) Tracking and Keplerian Element Data

This shows tracking and keplerian element data for the satellite.

Feedback or suggestion? Click here.




ElementValue
Catalog45114
NameAEROCUBE 14A
Epoch Orbit324
Epoch Day52.86989916
Epoch Year2020
RAAN206.5305
Inclination51.6415
Eccentricity0.0011997
Argument of Perigee3.3263
Mean Anonmoly356.7796
Mean Motion15.32939331
Decay Rate1.771E-05
L11 45114U 19071D 20052.86989916 .00001771 00000-0 66401-4 0 9995
L22 45114 51.6415 206.5305 0011997 3.3263 356.7796 15.32939331 3245

Live tracking and technical data element details for AEROCUBE 14A (NORAD 45114). AEROCUBE 14A can be tracked NOW for your location showing map with azimuth and elevation plus other details from your city location.

Track the satellite on the map from your city or location and see movement details for azimuth, elevation, latitude, longitude, range, height, and movement on the map or in text.







IsCatalogInMostPopularTable: catalog: 45114, numindb: 10
Update: records affected: 1



GetName: 45114 AEROCUBE 14A

Hit Count: updated at: Wed, 26 Feb 2020 17:17:26 GMT